Regional Weather Roundup
Issued by NWS

Home | Current Version | Previous Version | Text Only | Print | Product List | Glossary On
Versions: 1 2 3 4 5 6 7 8 9 10 11 12 13 14 15 16 17 18 19 20 21 22 23 24 25 26 27 28 29 30 31 32 33 34 35 36 37 38 39 40 41 42 43 44 45 46 47 48 49 50
000
ASHW40 PHFO 172013
RWRHI

WEATHER ROUNDUP FOR HAWAII
NATIONAL WEATHER SERVICE HONOLULU HI
1000 AM HST TUE OCT 17 2017

THIS IS AN AUTOMATED REPORT THAT HAS NOT BEEN QUALITY CONTROLLED.

NOTE..."FAIR" INDICATES FEW OR NO CLOUDS BELOW 12,000 FEET WITH NO
SIGNIFICANT WEATHER AND/OR OBSTRUCTIONS TO VISIBILITY.

* - THESE SITES REPORT LIMITED FIELDS
# - BUOY DATA PROVIDED BY PACIFIC ISLANDS OCEAN OBSERVING SYSTEM.

HIZ001>004-172100-
KAUAI-NIIHAU-

CITY           SKY/WX    TMP DP  RH WIND       PRES   REMARKS
LIHUE APT      MOSUNNY   82  67  60 NE24      30.14R
PORT ALLEN*      N/A     81 N/A N/A NE22G36     N/A
POIPU*           N/A     79 N/A N/A NE14G28     N/A
PRINCEVILLE*     N/A     77 N/A N/A E14G31      N/A
KOKOLE POINT*  NOT AVBL
MOLOAA DAIRY*    N/A     81  70  69 E5G18       N/A
WAIMEA HTS*    NOT AVBL
PUU OPAE*      NOT AVBL
PUU LUA*       NOT AVBL
MAKAHA RIDGE*  NOT AVBL
$$

HIZ005>011-172100-
OAHU-

CITY           SKY/WX    TMP DP  RH WIND       PRES   REMARKS
HONOLULU       MOSUNNY   84  62  47 NE20G29   30.08S
KALAELOA       PTSUNNY   83  62  49 NE12G24   30.09S
KANEOHE MCB    MOSUNNY   83  66  56 NE14G25   30.09R
WHEELER FIELD  FAIR      77  64  65 NE17G23   30.10R
BELLOWS*       NOT AVBL
KAHUKU*        NOT AVBL
WHEELER*       NOT AVBL
WAIANAE HARBOR NOT AVBL
DILLINGHAM*      N/A     72  55  56 SW12G21     N/A
KAHUKU TRN*      N/A     72  57  60 W16G33      N/A
KAWAILOA*        N/A     73  64  73 E16G31      N/A
KII*             N/A     81  66  61 E20G30      N/A
MAKUA RANGE*     N/A     82  61  47 W12G37      N/A
OAHU FOREST NW NOT AVBL
SCHOFIELD BRK*   N/A    N/A N/A N/A MISG        N/A
SCHOFIELD S*   NOT AVBL
WAIANAE VLY*   NOT AVBL
KUAOKALA*      NOT AVBL
HONOULIUULI*   NOT AVBL
MOKUOLOE IS*   NOT AVBL
PALEHUA*       NOT AVBL
WAIAWA PHB*    NOT AVBL
$$

HIZ012>013-172100-
MOLOKAI-

CITY           SKY/WX    TMP DP  RH WIND       PRES   REMARKS
MOLOKAI AIRPT  PTSUNNY   82  65  56 NE10G30   30.11R
KALAUPAPA      NOT AVBL
MAKAPULAPAI*   NOT AVBL
MOLOKAI 1*     NOT AVBL
PUU ALII*      NOT AVBL
$$

HIZ016-172100-
KAHOOLAWE-

CITY           SKY/WX    TMP DP  RH WIND       PRES   REMARKS
KAHOOLAWE*     NOT AVBL
HAKIOAWA*      NOT AVBL
HONOKANAIA*      N/A     84  62  47 VRB15G33  29.99R
KANELOA*         N/A     79  61  53 NW12G32   30.12
KEALIALALO*    NOT AVBL
LUA MAKIKA*    NOT AVBL
$$

HIZ014>015-172100-
LANAI-

CITY           SKY/WX    TMP DP  RH WIND       PRES   REMARKS
LANAI CITY     FAIR      77  62  59 NE23G30   30.11F
LANAI 1*       NOT AVBL
$$

HIZ017>028-172100-
MAUI-

CITY           SKY/WX    TMP DP  RH WIND       PRES   REMARKS
KAHULUI        MOSUNNY   83  62  49 NE15G25   30.10R
KAPALUA-W MAUI MOSUNNY   81  64  57 NE23G29   30.09
HANA AIRPORT   NOT AVBL
HANA*            N/A     79 N/A N/A NE10G16     N/A
HALEAKALA SUMM   N/A     41  41 100 NE23G44     N/A
MAALAEA BAY*   NOT AVBL
HALEAKALA*     NOT AVBL
KAUPO GAP*     NOT AVBL
KULA 1*          N/A     60  51  71 W3          N/A
$$

HIZ023>026-172100-
BIG ISLAND OF HAWAII COAST AND LOWER SLOPES-

CITY           SKY/WX    TMP DP  RH WIND       PRES   REMARKS
KAILUA KONA    MOSUNNY   82  59  45 W3        30.00R
HILO           PTSUNNY   80  67  64 N12       30.10R
HONOKAA*         N/A     75 N/A N/A VRB1        N/A
KAWAIHAE MWT*    N/A     84 N/A N/A SW9G20      N/A
KAWAIHAE*      NOT AVBL
SOUTH POINT*     N/A     77 N/A N/A N28G39      N/A
UPOLU AIRPORT* NOT AVBL
KAMUELA*       NOT AVBL
HAKALAU*         N/A     58  50  76 NE6G15      N/A
KALOKO-HONOKO* NOT AVBL
PALI 2*          N/A     70  57  64 S24G32      N/A
KEALAKOMO*       N/A     82  63  51 N23G33      N/A
KAUPULEHU*     NOT AVBL
KAPAPALA*        N/A     80  56  43 NE10G20     N/A
LOWER KAHUKU*  NOT AVBL
PUHE CS*       NOT AVBL
PUHO CS*       NOT AVBL
PTA KEAMUKU*     N/A     72  50  46 NE29G41     N/A
WAIKOLOA*      NOT AVBL
$$

HIZ027>028-172100-
BIG ISLAND OF HAWAII INTERIOR AND SUMMMITS-

CITY           SKY/WX    TMP DP  RH WIND       PRES   REMARKS
BRADSHAW FIELD MOSUNNY   64  45  50 S9G17     30.33R
MK VISITOR CEN   N/A     61  21  21 SE17        N/A
MAUNA KEA*       N/A     46   3  17 NE24        N/A
MAUNA LOA*     NOT AVBL
MAUNA LOA 1*   NOT AVBL
PTA KIPUKA*      N/A    N/A N/A N/A NE3G12      N/A
PTA RANGE 17*    N/A     70  54  56 NW18G29     N/A
PTA WEST*        N/A     57  37  47 W6G20       N/A
NENE CABIN*    NOT AVBL
AHUMOA*        NOT AVBL
PTA PORTABLE*  NOT AVBL
PUU MALI*        N/A     59  36  41 E24G39      N/A
$$

HIC003-172100-
NORTHWEST ISLANDS-

CITY           SKY/WX    TMP DP  RH WIND       PRES   REMARKS
MIDWAY ISLAND  MOSUNNY   79  70  73 E21       30.23R
MIDWAY NOS*    NOT AVBL
FRENCH FRIGATE NOT AVBL
$$

PHZ110>124-180-172100-
BUOY REPORTS

STATION/POSITION TIME  TEMP    WIND        PRES    WAVE   SWELL
                       AIR SEA DIR/SP/G            HT/PER HT/DIR
                 (UTC) (F)     (DEG/KT/KT) (MB)    (FT/S) (FT/D)
BUOY 51001       1950   78 81   70/ 21/ 27 1021.9R  10/ 9   3/160
BUOY 51101       1950   79 81   70/ 21/ 27 1021.9R  10/ 9   5/ 40
BUOY 51100       NOT AVBL
BUOY 51002       1950   80 80   70/ 25/ 33 1014.9R  11/ 9   8/ 80
BUOY 51003       1950   81 82   30/ 23/ 29 1015.8R  10/10   8/ 70
BUOY 51004       1950   79 80   60/ 17/ 21 1016.1R  10/ 9   5/240
WAIMEA BAY#      1932      78                N/A     7/ 9   2/330
MOKAPU POINT#    1934      80                N/A    10/ 9   3/ 50
LANAI#           NOT AVBL
BARBERS PT 2#    NOT AVBL
PAUWELA#         NOT AVBL
HILO#            1957      80                N/A     9/ 9   3/ 70
KANEOHE BAY#     NOT AVBL
KANEOHE BAY 2#   NOT AVBL
HANALEI#         1952      81                N/A     9/ 8   3/ 70
KAHULUI HARBOR   1942   77 79   60/ 14/ 21 1019.4R
HONOLULU HARBOR  1942   80 80   80/  4/ 18 1019.5R
PEARL HARBOR#    1930      80                N/A     4/15   2/160
KILO NALU        NOT AVBL
HILO HARBOR      NOT AVBL
MOKUOLOE         1936   80 79   70/ 18/ 25 1019.8R
NAWILIWILI       1948   79      60/ 17/ 24 1020.1R
WHOTS BUOY       NOT AVBL
BUOY 51028       NOT AVBL
$$

......................KEY........................................
  SKY/WX - SKY CONDITIONS/PRESENT WEATHER
  TMP    - TEMPERATURE IN FAHRENHEIT
  DWPT   - DEWPOINT IN FAHRENHEIT
  RH     - RELATIVE HUMIDITY IN PERCENT
  WIND   - DIRECTION AND SPEED /MPH FOR ISLANDS...KTS FOR BUOYS/
  PRES   - MEAN SEA LEVEL PRESSURE IN INCHES OF HG
  VSB    - VISIBILITY IN MILES
  HX     - HEAT INDEX
  WCI    - WIND CHILL INDEX
  VRB    - VARIABLE WIND DIRECTION
  N/A    - NOT AVAILABLE



USA.gov is the U.S. government's official web portal to all federal, state and local government web resources and services.